FW9176 Weather Reports


time (UTC)temp
C
wind
direction
speed
KPH
gust
KPH
rain 1hr
cm
rain 24hr
cm
rain mn
cm
humidity
%
barometer
mb
20260906113104 21 0 0.0 0.0 0.00 0.00 0.00 83 1015.8
20260906111601 21 0 0.0 0.0 0.00 0.00 0.00 84 1015.6
20260906110106 21 0 0.0 0.0 0.00 0.00 0.00 84 1015.7
20260906104600 21 0 0.0 0.0 0.00 0.00 0.00 84 1015.4
20260906103106 21 0 0.0 0.0 0.00 0.00 0.00 83 1015.2
20260906101602 21 0 0.0 0.0 0.00 0.00 0.00 82 1015.1
20260906100058 21 0 0.0 0.0 0.00 0.00 0.00 81 1014.9
20260906094609 21 0 0.0 0.0 0.00 0.00 0.00 81 1014.7
20260906093100 22 0 0.0 0.0 0.00 0.00 0.00 81 1014.7
20260906091606 22 0 0.0 0.0 0.00 0.00 0.00 81 1014.9
20260906090100 22 0 0.0 0.0 0.00 0.00 0.00 81 1014.7
20260906084602 22 0 0.0 0.0 0.00 0.00 0.00 80 1014.7
20260906083105 22 0 0.0 0.0 0.00 0.00 0.00 80 1014.6
20260906081603 22 0 0.0 0.0 0.00 0.00 0.00 80 1014.6
20260906074605 22 0 0.0 0.0 0.00 0.00 0.00 79 1015.0
20260906073059 22 0 0.0 0.0 0.00 0.00 0.00 79 1015.0
20260906071604 22 0 0.0 1.6 0.00 0.00 0.00 79 1014.9
20260906070101 22 0 0.0 1.6 0.00 0.00 0.00 81 1014.9
20260906064558 22 0 0.0 1.6 0.00 0.00 0.00 81 1014.6
20260906063104 22 0 0.0 1.6 0.00 0.00 0.00 81 1014.9
20260906061559 22 0 0.0 1.6 0.00 0.00 0.00 82 1014.9
20260906060104 22 0 0.0 1.6 0.00 0.00 0.00 82 1014.9
20260906054605 22 0 0.0 1.6 0.00 0.00 0.00 81 1014.9
20260906053108 22 0 0.0 1.6 0.00 0.00 0.00 81 1014.7
20260906051605 22 0 0.0 1.6 0.00 0.00 0.00 81 1014.4
20260906050108 22 0 0.0 1.6 0.00 0.00 0.00 81 1014.3
20260906044600 22 0 0.0 1.6 0.00 0.00 0.00 81 1014.3
20260906043107 22 50 0.0 1.6 0.00 0.00 0.00 81 1014.0
20260906041603 22 0 0.0 1.6 0.00 0.00 0.00 81 1013.9
20260906040110 22 0 0.0 3.2 0.00 0.00 0.00 81 1013.9
20260906034607 22 0 0.0 3.2 0.00 0.00 0.00 81 1013.8
20260906033112 22 72 0.0 3.2 0.00 0.00 0.00 80 1013.8
20260906031600 22 0 0.0 4.8 0.00 0.00 0.00 80 1014.0
20260906030100 22 0 0.0 4.8 0.00 0.00 0.00 80 1013.9
20260906024557 22 0 0.0 3.2 0.00 0.00 0.00 79 1013.8
20260906023102 22 58 0.0 4.8 0.00 0.00 0.00 79 1013.8
20260906021606 22 60 0.0 8.0 0.00 0.00 0.00 79 1013.7
20260906020109 22 0 1.6 3.2 0.00 0.00 0.00 79 1013.9
20260906014602 22 46 1.6 4.8 0.00 0.00 0.00 80 1014.0
20260906013110 22 0 0.0 1.6 0.00 0.00 0.00 80 1013.9
20260906011605 22 0 0.0 4.8 0.00 0.00 0.00 80 1013.9
20260906010100 22 0 0.0 6.4 0.00 0.00 0.00 81 1013.8
20260906004611 22 0 0.0 9.7 0.00 0.00 0.00 81 1013.6
20260906003107 22 68 1.6 8.0 0.00 0.00 0.00 80 1013.7
20260906001607 22 20 0.0 4.8 0.00 0.00 0.00 80 1013.7
20260906000109 22 250 0.0 3.2 0.00 0.00 0.00 80 1013.6
20260905234602 22 340 0.0 6.4 0.00 0.00 0.00 79 1013.5
20260905233100 23 62 0.0 8.0 0.00 0.00 0.00 79 1013.3
20260905231556 23 285 0.0 9.7 0.00 0.00 0.00 77 1013.0
20260905224558 25 0 0.0 4.8 0.00 0.00 0.00 75 1012.9
20260905223058 25 61 0.0 4.8 0.00 0.00 0.00 73 1012.9
20260905221605 26 63 1.6 4.8 0.00 0.00 0.00 72 1012.9
20260905214555 26 35 0.0 3.2 0.00 0.00 0.00 70 1012.9
20260905213108 26 65 0.0 3.2 0.00 0.00 0.00 70 1012.6
20260905211601 26 0 0.0 3.2 0.00 0.00 0.00 70 1012.4
20260905210123 26 0 0.0 3.2 0.00 0.00 0.00 72 1012.6
20260905204604 26 29 0.0 1.6 0.00 0.00 0.00 72 1013.0
20260905203101 26 0 0.0 4.8 0.00 0.00 0.00 71 1012.7
20260905201558 26 0 1.6 3.2 0.00 0.00 0.00 72 1012.8
20260905200107 26 46 0.0 4.8 0.00 0.00 0.00 72 1012.9
20260905194608 26 0 0.0 6.4 0.00 0.00 0.00 73 1012.9
20260905193102 26 48 0.0 6.4 0.00 0.00 0.00 72 1013.1
20260905191608 26 77 0.0 3.2 0.00 0.00 0.00 72 1013.1
20260905190100 26 0 0.0 4.8 0.00 0.00 0.00 72 1013.2
20260905184624 26 338 0.0 8.0 0.00 0.00 0.00 72 1013.0
20260905183109 27 274 0.0 6.4 0.00 0.00 0.00 71 1013.1
20260905181601 27 335 0.0 8.0 0.00 0.00 0.00 71 1013.1
20260905180104 27 0 0.0 3.2 0.00 0.00 0.00 70 1012.8
20260905174600 27 0 1.6 3.2 0.00 0.00 0.00 70 1012.9
20260905173109 27 30 0.0 4.8 0.00 0.00 0.00 71 1012.9
20260905171624 27 51 0.0 4.8 0.00 0.00 0.00 69 1013.0
20260905170101 28 324 1.6 4.8 0.00 0.00 0.00 69 1013.1
20260905164605 27 0 0.0 3.2 0.00 0.00 0.00 69 1013.2
20260905163110 28 0 0.0 1.6 0.00 0.00 0.00 70 1013.1
20260905161600 27 51 0.0 6.4 0.00 0.00 0.00 70 1013.2
20260905160100 27 0 0.0 4.8 0.00 0.00 0.00 71 1012.9
20260905154613 27 39 0.0 4.8 0.00 0.00 0.00 70 1012.8
20260905153113 27 70 0.0 3.2 0.00 0.00 0.00 72 1012.7
20260905151614 26 58 0.0 4.8 0.00 0.00 0.00 74 1012.6
20260905150107 26 33 0.0 6.4 0.00 0.00 0.00 74 1012.5
20260905144603 26 12 1.6 6.4 0.00 0.00 0.00 76 1012.4
20260905143104 26 0 0.0 3.2 0.00 0.00 0.00 77 1012.3
20260905141557 25 20 0.0 1.6 0.00 0.00 0.00 79 1012.2
20260905140100 25 0 0.0 3.2 0.00 0.00 0.00 83 1012.1
20260905134558 24 0 0.0 3.2 0.00 0.00 0.00 85 1011.9
20260905133101 23 316 0.0 3.2 0.00 0.00 0.00 86 1012.3
20260905131607 23 0 0.0 1.6 0.00 0.00 0.00 86 1012.1
20260905124601 23 14 0.0 1.6 0.00 0.00 0.00 86 1011.8
20260905123059 23 0 0.0 0.0 0.00 0.00 0.00 86 1011.4
20260905121602 23 0 0.0 0.0 0.00 0.00 0.00 86 1011.4
20260905114602 24 0 0.0 0.0 0.00 0.00 0.00 85 1010.7